Location: Observatory
(52.1446°N, 0.4624°W)
Time: 15:12:09
(UTC+00:00)

ISS - Pass Details

Date: 09 November 2018
Orbit: 401 x 408 km, 51.6° (Epoch: 20 November)

Event Time Altitude Azimuth Distance (km) Brightness Sun altitude
Exits shadow 04:15:26 22° 98° (E) 956 -1.3 -27.0°
Drops below altitude 10° 04:16:43 10° 97° (E) 1,465 -0.1 -26.8°
Sets 04:18:48 0° 96° (E) 2,326 1.3 -26.5°
